Flag for Canada Weather past 2 weeks in Corner Brook, Newfoundland and Labrador, Canada

Now
12 °F

Partly sunny.


Feels Like: 12 °F
Forecast: 13 / 35 °F
Wind: No wind

Location: Deer Lake

Current Time: Mar 30, 2015 at 9:10:11 AM

Latest Report: Mar 30, 2015 at 8:30 AM


Visibility: 15 mi

Pressure: 30.02 "Hg

Humidity: 85%

Dew point: 9 °F

Location of Corner BrookLocation

Historic Weather in Corner Brook — Graph

°F

Corner Brook temperature yesterday

Maximum temperature yesterday: 32 °F (at 2:30 PM)
Minimum temperature yesterday: 19 °F (at 11:30 PM)
Average temperature yesterday: 27 °F

Past Weeks' High & Low Weather Summary

 TemperatureHumidityPressure
High41 °F (Mar 27, 4:30 PM)100% (Mar 18, 2:30 AM)30.27 "Hg (Mar 18, 2:30 AM)
Low-18 °F (Mar 15, 7:30 AM)34% (Mar 29, 2:30 PM)28.86 "Hg (Mar 22, 4:30 PM)
Average25 °F76%29.68 "Hg
* Reported Mar 15 7:30 AM — Mar 30 7:30 AM, Corner Brook, Weather by CustomWeather, © 2015

Note: Actual official high and low records may vary slightly from our data, if they occured in-between our weather recording intervals... More about our weather records

Advertising

Corner Brook weather history for previous 24 hours

 ConditionsComfort  
Time TempWeatherWind HumidityBarometerVisibility
7:30 AM
Mon, Mar 30
3 °FPassing clouds.3 mph85%30.02 "Hg15 mi
6:30 AM7 °FPassing clouds.No wind92%30.01 "Hg15 mi
5:30 AM9 °FPassing clouds.No wind92%29.99 "Hg15 mi
4:30 AM12 °FPassing clouds.No wind92%29.99 "Hg15 mi
3:30 AM16 °FPassing clouds.No wind86%29.99 "Hg15 mi
2:30 AM21 °FPassing clouds.8 mph80%29.99 "Hg15 mi
1:30 AM18 °FPartly cloudy.7 mph86%29.98 "Hg15 mi
12:30 AM19 °FPassing clouds.8 mph79%29.97 "Hg15 mi
11:30 PM
Sun, Mar 29
19 °FPassing clouds.8 mph79%29.96 "Hg15 mi
10:30 PM21 °FPassing clouds.9 mph74%29.94 "Hg15 mi
9:30 PM23 °FPassing clouds.8 mph68%29.92 "Hg15 mi
8:30 PM25 °FPassing clouds.14 mph63%29.91 "Hg15 mi
7:30 PM25 °FPartly sunny.12 mph63%29.88 "Hg15 mi
6:30 PM27 °FPartly sunny.13 mph54%29.84 "Hg15 mi
5:30 PM27 °FPartly sunny.16 mph54%29.81 "Hg15 mi
4:30 PM28 °FPartly sunny.14 mph51%29.79 "Hg15 mi
3:30 PM30 °FPartly sunny.16 mph34%29.75 "Hg15 mi
2:30 PM32 °FPartly sunny.13 mph34%29.72 "Hg15 mi
1:30 PM30 °FPartly sunny.9 mph51%29.68 "Hg15 mi
12:30 PM30 °FBroken clouds.7 mph69%29.66 "Hg15 mi
11:30 AM30 °FOvercast.10 mph75%29.65 "Hg15 mi
10:30 AM28 °FMore clouds than sun.3 mph86%29.63 "Hg8 mi
9:30 AM27 °FLight snow. Mostly cloudy.2 mph93%29.62 "Hg1 mi
Weather by CustomWeather, © 2015

See weather overviewHow to use our weather pages